Weather Roundup
Issued by NWS Springfield, MO

Home | Current Version | Previous Version | Text Only | Print | Product List | Glossary Off
Versions: 1 2 3 4 5 6 7 8 9 10 11 12 13 14 15 16 17 18 19 20 21 22 23 24 25 26 27 28 29 30 31 32 33 34 35 36 37 38 39 40 41 42 43 44 45 46 47 48 49 50

000
NZUS99 KSGF 202207
HRRSGF

HOURLY WEATHER
NATIONAL WEATHER SERVICE SPRINGFIELD MO
500 PM CDT SUN AUG 20 2017

......SGF CWA......

CITY           SKY/WX    TMP DP  RH WIND       PRES   REMARKS
SPRINGFIELD    MOSUNNY   90  76  63 SE10      30.03R HX 101
JOPLIN         SUNNY     94  74  52 SW9       29.99R HX 104
WEST PLAINS    MOSUNNY   86  71  60 S8        30.08S HX  91
ROLLA          SUNNY     87  73  62 S10       30.06R HX  94
OSAGE BEACH    SUNNY     88  74  63 SE6       30.04R HX  96
BRANSON        PTSUNNY   90  73  58 SE9       30.05R HX  98

......SURROUNDING SGF CWA......

CITY           SKY/WX    TMP DP  RH WIND       PRES   REMARKS
CHANUTE        SUNNY     94  75  54 S12       29.96R HX 105
PARSONS        SUNNY     93  75  55 S7        29.97R HX 104
COFFEYVILLE    SUNNY     93  76  57 S16       29.94S HX 105
EMPORIA        SUNNY     93  72  50 SE15G21   29.94S HX 101
GROVE OK       SUNNY     95  73  49 S9        29.99S HX 105
ROGERS AR      MOSUNNY   93  72  50 SW9       30.04R HX 101
SILOAM SPRINGS SUNNY     91  72  52 S10       30.02R HX  98
HARRISON AR    MOSUNNY   89  73  59 E10       30.05R HX  97
NEAR YELLVILLE SUNNY     88  68  51 E7        30.02S HX  91

......KANSAS AND MISSOURI......

CITY           SKY/WX    TMP DP  RH WIND       PRES   REMARKS
KANSAS CTY INT PTSUNNY   85  71  63 SE16      29.99F HX  90
DOWNTOWN KC    CLOUDY    89  73  59 E10       29.97F HX  97
COLUMBIA       MOSUNNY   87  72  60 W6        30.03R HX  93
SEDALIA        CLOUDY    90  76  63 SW3       30.03F HX 101
ST JOSEPH      MOSUNNY   86  69  56 SE12G21   29.98R HX  90
ST LOUIS       MOSUNNY   92  71  50 S15       30.01R HX  98
SPIRIT OF STL  SUNNY     91  74  57 S8        29.99S HX 100
KIRKSVILLE     CLOUDY    79  68  69 W7        29.99F
WICHITA        MOSUNNY   98  71  41 S17       29.91F HX 106
TOPEKA         MOSUNNY   89  77  67 E13       29.95F HX 101
OLATHE         MOSUNNY   87  75  67 E9        30.00F HX  96

......TENNESSEE......

CITY           SKY/WX    TMP DP  RH WIND       PRES   REMARKS
MEMPHIS        CLOUDY    86  75  69 E5        30.04R HX  95
NASHVILLE      MOSUNNY   94  55  26 SE5       30.06S HX  92

......ARKANSAS.......

CITY           SKY/WX    TMP DP  RH WIND       PRES   REMARKS
FAYETTEVILLE   SUNNY     91  74  57 SE7       30.03R HX 100
FT SMITH       MOSUNNY   94  74  52 SE5       29.97R HX 104
LITTLE ROCK    PTSUNNY   94  73  50 SE5       29.99S HX 103

......OKLAHOMA.......

CITY           SKY/WX    TMP DP  RH WIND       PRES   REMARKS
TULSA          PTSUNNY   95  71  45 S16       29.93S HX 102
MCALESTER      SUNNY     93  75  55 VRB3      29.98S HX 104
OKLAHOMA CITY  MOSUNNY   90  71  53 S15       29.95F HX  96

......IOWA............

CITY           SKY/WX    TMP DP  RH WIND       PRES   REMARKS
DES MOINES     PTSUNNY   81  66  60 SW8       29.97R
QUAD CITIES    CLOUDY    83  70  64 S7        29.99R

......ILLINOIS........

CITY           SKY/WX    TMP DP  RH WIND       PRES   REMARKS
QUINCY         PTSUNNY   82  71  69 S8        30.01S
CHICAGO        CLOUDY    84  67  56 SW8       30.00S



USA.gov is the U.S. government's official web portal to all federal, state and local government web resources and services.